GW6076 Weather Reports


Display with metric or nautical units.
time (UTC)temp
F
wind
direction
speed
MPH
gust
MPH
rain 1hr
in
rain 24hr
in
rain mn
in
humidity
%
barometer
mb
20260510020743 64 18 0.0 1.0 0.00 0.00 0.00 89 1021.4
20260510020242 63 287 1.0 1.0 0.00 0.00 0.00 89 1021.3
20260510015739 63 89 0.0 0.0 0.00 0.00 0.00 89 1021.5
20260510015235 63 89 0.0 1.0 0.00 0.00 0.00 89 1021.5
20260510014730 63 89 0.0 0.0 0.00 0.00 0.00 89 1021.4
20260510014228 63 89 0.0 0.0 0.00 0.00 0.00 89 1021.2
20260510013724 63 37 0.0 0.0 0.00 0.00 0.00 89 1021.4
20260510013219 64 50 0.0 2.0 0.00 0.00 0.00 88 1021.2
20260510012719 64 230 0.0 1.0 0.00 0.00 0.00 88 1021.3
20260510012215 64 89 0.0 0.0 0.00 0.00 0.00 88 1021.2
20260510011715 64 68 2.0 2.0 0.00 0.00 0.00 88 1021.2
20260510011211 64 50 0.0 0.0 0.00 0.00 0.00 87 1021.1
20260510010708 64 129 0.0 1.0 0.00 0.00 0.00 86 1021.3
20260510010204 65 151 0.0 1.0 0.00 0.00 0.00 86 1021.0
20260510005701 65 233 0.0 0.0 0.00 0.00 0.00 85 1021.0
20260510005157 65 233 0.0 0.0 0.00 0.00 0.00 84 1020.9
20260510004655 66 309 0.0 0.0 0.00 0.00 0.00 84 1021.1
20260510004153 65 160 0.0 0.0 0.00 0.00 0.00 84 1021.3
20260510003650 66 49 0.0 0.0 0.00 0.00 0.00 84 1021.0
20260510003146 65 26 1.0 2.0 0.00 0.00 0.00 84 1020.9
20260510002646 66 354 0.0 2.0 0.00 0.00 0.00 83 1021.0
20260510002143 66 286 1.0 1.0 0.00 0.00 0.00 82 1020.9
20260510001640 66 283 1.0 2.0 0.00 0.00 0.00 82 1021.0
20260510001138 66 13 0.0 2.0 0.00 0.00 0.00 82 1020.9
20260510000638 67 257 0.0 1.0 0.00 0.00 0.00 81 1020.5
20260510000137 67 322 2.0 2.0 0.00 0.00 0.00 80 1020.6
20260509235632 67 336 0.0 2.0 0.00 0.00 0.00 80 1020.4
20260509235129 67 281 2.0 2.0 0.00 0.00 0.00 80 1020.4
20260509234625 67 269 0.0 2.0 0.00 0.00 0.00 80 1020.7
20260509234123 67 29 0.0 2.0 0.00 0.00 0.00 80 1020.4
20260509233620 67 272 1.0 2.0 0.00 0.00 0.00 80 1020.1
20260509233118 67 37 0.0 0.0 0.00 0.00 0.00 80 1020.3
20260509232614 68 22 0.0 2.0 0.00 0.00 0.00 79 1020.3
20260509232111 68 269 0.0 1.0 0.00 0.00 0.00 79 1020.2
20260509231608 68 110 0.0 0.0 0.00 0.00 0.00 79 1020.1
20260509231105 68 292 1.0 2.0 0.00 0.00 0.00 78 1019.9
20260509230602 68 329 2.0 2.0 0.00 0.00 0.00 78 1019.9
20260509230059 68 229 0.0 0.0 0.00 0.00 0.00 78 1020.1
20260509225554 68 347 0.0 0.0 0.00 0.00 0.00 77 1019.5
20260509225050 68 295 3.0 3.0 0.00 0.00 0.00 77 1019.7
20260509224546 69 304 0.0 2.0 0.00 0.00 0.00 77 1019.8
20260509224043 69 66 0.0 0.0 0.00 0.00 0.00 77 1019.5
20260509223540 69 17 0.0 0.0 0.00 0.00 0.00 77 1019.4
20260509223038 69 142 0.0 0.0 0.00 0.00 0.00 76 1019.7
20260509222533 69 281 0.0 0.0 0.00 0.00 0.00 75 1019.5
20260509222029 70 289 1.0 1.0 0.00 0.00 0.00 74 1019.3
20260509221525 70 297 0.0 1.0 0.00 0.00 0.00 73 1019.2
20260509221021 71 352 0.0 2.0 0.00 0.00 0.00 72 1019.1
20260509220518 71 315 0.0 2.0 0.00 0.00 0.00 72 1019.2
20260509220014 71 314 0.0 2.0 0.00 0.00 0.00 72 1019.1
20260509215509 71 305 1.0 2.0 0.00 0.00 0.00 73 1018.9
20260509215007 71 301 1.0 2.0 0.00 0.00 0.00 72 1019.0
20260509214504 71 315 1.0 2.0 0.00 0.00 0.00 72 1018.7
20260509214001 71 328 1.0 2.0 0.00 0.00 0.00 71 1019.0
20260509213457 72 296 1.0 2.0 0.00 0.00 0.00 71 1018.8
20260509212954 72 320 2.0 3.0 0.00 0.00 0.00 70 1019.0
20260509212451 72 312 0.0 2.0 0.00 0.00 0.00 71 1018.9
20260509211947 73 282 1.0 2.0 0.00 0.00 0.00 69 1018.9
20260509211443 73 306 1.0 2.0 0.00 0.00 0.00 68 1018.8
20260509210940 74 350 1.0 2.0 0.00 0.00 0.00 68 1019.0
20260509210437 74 307 1.0 3.0 0.00 0.00 0.00 67 1018.8
20260509205932 75 326 2.0 3.0 0.00 0.00 0.00 66 1019.0
20260509205427 76 305 3.0 3.0 0.00 0.00 0.00 65 1018.9
20260509204923 77 280 0.0 1.0 0.00 0.00 0.00 63 1018.9
20260509204419 79 272 1.0 1.0 0.00 0.00 0.00 61 1018.9
20260509203916 80 329 0.0 0.0 0.00 0.00 0.00 57 1018.7
20260509203412 80 102 1.0 2.0 0.00 0.00 0.00 52 1019.1
20260509202910 81 77 0.0 2.0 0.00 0.00 0.00 52 1018.9
20260509202405 81 122 1.0 3.0 0.00 0.00 0.00 52 1018.9
20260509201901 82 124 4.0 5.0 0.00 0.00 0.00 49 1018.8
20260509201356 83 135 3.0 4.0 0.00 0.00 0.00 50 1018.7
20260509200854 83 103 1.0 4.0 0.00 0.00 0.00 49 1018.8
20260509200354 83 144 3.0 5.0 0.00 0.00 0.00 49 1018.9
20260509195851 84 74 3.0 5.0 0.00 0.00 0.00 47 1018.9
20260509195351 84 113 1.0 6.0 0.00 0.00 0.00 47 1018.7
20260509194851 84 147 2.0 2.0 0.00 0.00 0.00 47 1018.7
20260509194347 83 115 3.0 5.0 0.00 0.00 0.00 48 1018.7
20260509193844 83 162 4.0 5.0 0.00 0.00 0.00 47 1018.7
20260509193344 84 47 0.0 4.0 0.00 0.00 0.00 46 1018.6
20260509192840 84 62 3.0 4.0 0.00 0.00 0.00 44 1018.7
20260509192336 84 120 2.0 5.0 0.00 0.00 0.00 44 1018.7
20260509191832 83 118 2.0 6.0 0.00 0.00 0.00 46 1018.4
20260509191327 83 111 2.0 6.0 0.00 0.00 0.00 46 1018.6
20260509190824 84 96 3.0 7.0 0.00 0.00 0.00 46 1018.4
20260509190321 85 57 0.0 2.0 0.00 0.00 0.00 44 1018.6
20260509185818 84 269 0.0 3.0 0.00 0.00 0.00 44 1018.3
20260509185314 85 122 3.0 3.0 0.00 0.00 0.00 44 1018.6
20260509184812 85 89 0.0 2.0 0.00 0.00 0.00 42 1018.7
20260509184309 86 136 3.0 6.0 0.00 0.00 0.00 42 1018.4
20260509183806 85 139 0.0 6.0 0.00 0.00 0.00 42 1018.3
20260509183301 86 74 3.0 9.0 0.00 0.00 0.00 42 1018.7
20260509182756 86 44 0.0 2.0 0.00 0.00 0.00 42 1018.4
20260509182254 85 14 1.0 4.0 0.00 0.00 0.00 42 1018.4
20260509181751 85 170 3.0 4.0 0.00 0.00 0.00 41 1018.6
20260509181249 85 133 2.0 4.0 0.00 0.00 0.00 42 1018.6
20260509180746 85 0 0.0 4.0 0.00 0.00 0.00 41 1018.6
20260509180242 85 71 2.0 9.0 0.00 0.00 0.00 43 1018.6
20260509175738 85 166 1.0 6.0 0.00 0.00 0.00 42 1018.7
20260509175235 84 130 6.0 7.0 0.00 0.00 0.00 41 1018.7
20260509174731 85 159 4.0 8.0 0.00 0.00 0.00 42 1018.7
20260509174226 85 88 5.0 6.0 0.00 0.00 0.00 41 1018.9
20260509173723 85 100 3.0 3.0 0.00 0.00 0.00 42 1018.8
20260509173219 85 128 4.0 9.0 0.00 0.00 0.00 42 1019.0
20260509172715 85 325 2.0 6.0 0.00 0.00 0.00 41 1018.8
20260509172211 86 65 3.0 4.0 0.00 0.00 0.00 41 1019.0
20260509171707 85 116 3.0 5.0 0.00 0.00 0.00 42 1018.9
20260509171203 85 102 4.0 7.0 0.00 0.00 0.00 44 1019.1
20260509170700 86 148 6.0 6.0 0.00 0.00 0.00 42 1019.4
20260509170156 85 102 0.0 4.0 0.00 0.00 0.00 42 1019.1
20260509165655 85 88 5.0 6.0 0.00 0.00 0.00 43 1019.4
20260509165150 85 137 4.0 10.0 0.00 0.00 0.00 46 1019.4
20260509164646 85 98 3.0 5.0 0.00 0.00 0.00 44 1019.2
20260509164142 85 21 3.0 5.0 0.00 0.00 0.00 43 1019.5
20260509163640 85 58 5.0 7.0 0.00 0.00 0.00 43 1019.7
20260509163135 85 21 3.0 8.0 0.00 0.00 0.00 44 1019.5
20260509162633 84 149 0.0 8.0 0.00 0.00 0.00 45 1019.8
20260509162129 86 53 4.0 7.0 0.00 0.00 0.00 42 1019.7
20260509161625 85 38 2.0 6.0 0.00 0.00 0.00 43 1020.0
20260509161120 84 140 1.0 5.0 0.00 0.00 0.00 45 1020.0
20260509160616 84 132 4.0 5.0 0.00 0.00 0.00 46 1020.0
20260509160112 84 126 4.0 7.0 0.00 0.00 0.00 45 1020.1
20260509155608 85 152 4.0 5.0 0.00 0.00 0.00 47 1019.9
20260509155105 83 41 2.0 7.0 0.00 0.00 0.00 48 1020.3
20260509154600 84 120 6.0 10.0 0.00 0.00 0.00 46 1020.2
20260509154058 84 62 4.0 6.0 0.00 0.00 0.00 48 1020.4
20260509153555 84 168 1.0 9.0 0.00 0.00 0.00 47 1020.3
20260509153052 86 110 5.0 9.0 0.00 0.00 0.00 45 1020.5
20260509152548 85 349 3.0 4.0 0.00 0.00 0.00 47 1020.4
20260509152045 83 25 3.0 5.0 0.00 0.00 0.00 50 1020.5
20260509151541 83 181 2.0 5.0 0.00 0.00 0.00 47 1020.5
20260509151039 82 139 5.0 5.0 0.00 0.00 0.00 49 1021.1
20260509150536 83 108 2.0 7.0 0.00 0.00 0.00 50 1020.9
20260509150035 83 1 3.0 6.0 0.00 0.00 0.00 49 1020.9
20260509145530 83 114 2.0 5.0 0.00 0.00 0.00 50 1020.7
20260509145025 82 103 4.0 6.0 0.00 0.00 0.00 50 1021.0
20260509144522 83 19 2.0 6.0 0.00 0.00 0.00 47 1021.2
20260509144020 84 81 4.0 7.0 0.00 0.00 0.00 50 1021.3
20260509143516 84 21 2.0 5.0 0.00 0.00 0.00 49 1021.4
20260509143015 83 143 1.0 6.0 0.00 0.00 0.00 52 1021.5
20260509142510 83 39 4.0 7.0 0.00 0.00 0.00 51 1021.3
20260509142005 82 109 4.0 4.0 0.00 0.00 0.00 54 1021.5
20260509141502 82 57 8.0 11.0 0.00 0.00 0.00 53 1021.6
20260509140959 82 230 0.0 4.0 0.00 0.00 0.00 53 1021.7
20260509140455 83 86 2.0 4.0 0.00 0.00 0.00 51 1022.0
20260509135954 81 318 2.0 3.0 0.00 0.00 0.00 54 1021.7
20260509135450 82 104 3.0 7.0 0.00 0.00 0.00 54 1022.0
20260509134948 81 108 4.0 6.0 0.00 0.00 0.00 55 1021.7
20260509134445 81 133 5.0 6.0 0.00 0.00 0.00 55 1022.0
20260509133943 80 345 2.0 4.0 0.00 0.00 0.00 56 1021.8
20260509133439 80 68 4.0 9.0 0.00 0.00 0.00 57 1021.8
20260509132937 80 61 3.0 7.0 0.00 0.00 0.00 58 1022.0
20260509132435 79 4 2.0 8.0 0.00 0.00 0.00 60 1022.0
20260509131932 79 89 3.0 11.0 0.00 0.00 0.00 60 1022.2
20260509131429 79 68 4.0 7.0 0.00 0.00 0.00 59 1022.2
20260509130926 80 35 3.0 8.0 0.00 0.00 0.00 59 1022.2
20260509130421 79 99 1.0 3.0 0.00 0.00 0.00 62 1022.1
20260509125918 78 74 4.0 5.0 0.00 0.00 0.00 63 1022.2
20260509125415 78 114 4.0 8.0 0.00 0.00 0.00 63 1022.2
20260509124911 78 43 5.0 7.0 0.00 0.00 0.00 62 1022.4
20260509124408 79 25 3.0 5.0 0.00 0.00 0.00 60 1022.4
20260509123906 78 299 0.0 7.0 0.00 0.00 0.00 62 1022.4
20260509123403 78 358 2.0 2.0 0.00 0.00 0.00 63 1022.2
20260509122858 77 43 0.0 5.0 0.00 0.00 0.00 64 1022.2
20260509122355 76 94 1.0 6.0 0.00 0.00 0.00 66 1022.3
20260509121852 77 101 2.0 6.0 0.00 0.00 0.00 64 1022.2
20260509121349 77 71 2.0 5.0 0.00 0.00 0.00 65 1022.0
20260509120848 77 105 3.0 6.0 0.00 0.00 0.00 64 1022.2
20260509120345 76 155 2.0 3.0 0.00 0.00 0.00 65 1022.1
20260509115843 75 241 2.0 2.0 0.00 0.00 0.00 68 1022.0
20260509115340 74 197 1.0 2.0 0.00 0.00 0.00 68 1021.7
20260509114837 74 160 2.0 5.0 0.00 0.00 0.00 68 1021.8
20260509114336 75 126 1.0 4.0 0.00 0.00 0.00 68 1021.7
20260509113835 74 211 2.0 3.0 0.00 0.00 0.00 68 1022.1
20260509113331 75 143 2.0 4.0 0.00 0.00 0.00 66 1022.0
20260509112828 76 154 0.0 0.0 0.00 0.00 0.00 65 1021.7
20260509112325 75 218 0.0 2.0 0.00 0.00 0.00 67 1021.6
20260509111822 74 142 0.0 2.0 0.00 0.00 0.00 68 1021.7
20260509111319 73 156 2.0 2.0 0.00 0.00 0.00 69 1021.6
20260509110817 73 158 1.0 2.0 0.00 0.00 0.00 70 1021.8
20260509110313 72 138 0.0 3.0 0.00 0.00 0.00 72 1021.7
20260509105811 72 138 2.0 2.0 0.00 0.00 0.00 71 1021.5
20260509105309 73 202 0.0 1.0 0.00 0.00 0.00 69 1021.5
20260509104805 74 128 1.0 2.0 0.00 0.00 0.00 67 1021.5
20260509104302 71 93 0.0 2.0 0.00 0.00 0.00 71 1021.5
20260509103800 70 183 0.0 1.0 0.00 0.00 0.00 73 1021.3
20260509103257 69 37 0.0 0.0 0.00 0.00 0.00 77 1021.5
20260509102755 68 309 0.0 1.0 0.00 0.00 0.00 79 1021.3
20260509102253 67 22 0.0 1.0 0.00 0.00 0.00 82 1021.0
20260509101749 65 22 0.0 2.0 0.00 0.00 0.00 85 1021.0
20260509101245 64 230 0.0 1.0 0.00 0.00 0.00 87 1021.1
20260509100742 63 215 0.0 1.0 0.00 0.00 0.00 86 1020.6
20260509100240 63 216 1.0 3.0 0.00 0.00 0.00 86 1020.7
20260509095736 62 79 0.0 3.0 0.00 0.00 0.00 91 1020.7
20260509095233 61 339 2.0 4.0 0.00 0.00 0.00 94 1020.6
20260509094731 60 30 3.0 4.0 0.00 0.00 0.00 93 1020.4
20260509094227 60 5 2.0 3.0 0.00 0.00 0.00 93 1020.5
20260509093725 60 2 2.0 4.0 0.00 0.00 0.00 93 1020.3
20260509093222 60 327 2.0 3.0 0.00 0.00 0.00 93 1020.1
20260509092720 60 296 2.0 3.0 0.00 0.00 0.00 93 1020.1
20260509092218 60 234 2.0 2.0 0.00 0.00 0.00 93 1020.2
20260509091716 60 326 2.0 2.0 0.00 0.00 0.00 93 1020.1
20260509091212 60 76 0.0 2.0 0.00 0.00 0.00 92 1019.9
20260509090710 60 69 0.0 1.0 0.00 0.00 0.00 92 1019.8
20260509090207 61 81 0.0 2.0 0.00 0.00 0.00 92 1019.9
20260509085705 61 311 0.0 2.0 0.00 0.00 0.00 92 1020.0
20260509085201 61 348 1.0 2.0 0.00 0.00 0.00 92 1019.9
20260509084658 61 6 0.0 1.0 0.00 0.00 0.00 91 1019.8
20260509084154 61 250 1.0 3.0 0.00 0.00 0.00 91 1019.8
20260509083653 61 55 0.0 2.0 0.00 0.00 0.00 91 1019.5
20260509083148 61 307 0.0 2.0 0.00 0.00 0.00 92 1019.3
20260509082646 61 326 0.0 2.0 0.00 0.00 0.00 92 1019.7
20260509082142 61 292 2.0 3.0 0.00 0.00 0.00 92 1019.4
20260509081639 61 26 2.0 2.0 0.00 0.00 0.00 91 1019.4
20260509081137 62 74 0.0 1.0 0.00 0.00 0.00 90 1019.4
20260509080635 62 300 0.0 2.0 0.00 0.00 0.00 90 1019.1
20260509080132 62 276 0.0 2.0 0.00 0.00 0.00 90 1019.4
20260509075630 62 273 0.0 1.0 0.00 0.00 0.00 90 1019.2
20260509075128 62 323 1.0 2.0 0.00 0.00 0.00 90 1019.2
20260509074624 62 274 0.0 2.0 0.00 0.00 0.00 90 1019.1
20260509074121 62 5 2.0 2.0 0.00 0.00 0.00 90 1019.2
20260509073618 62 328 0.0 1.0 0.00 0.00 0.00 89 1019.1
20260509073114 62 318 2.0 2.0 0.00 0.00 0.00 90 1019.2
20260509072611 62 314 2.0 3.0 0.00 0.00 0.00 90 1019.0
20260509072108 62 301 1.0 2.0 0.00 0.00 0.00 89 1018.9
20260509071604 62 22 1.0 2.0 0.00 0.00 0.00 89 1019.0
20260509071102 63 334 0.0 2.0 0.00 0.00 0.00 89 1019.1
20260509070559 63 36 1.0 2.0 0.00 0.00 0.00 89 1018.8
20260509070055 63 44 0.0 2.0 0.00 0.00 0.00 89 1019.0
20260509065550 63 322 0.0 2.0 0.00 0.00 0.00 89 1019.0
20260509065047 62 0 0.0 3.0 0.00 0.00 0.00 89 1018.9
20260509064544 62 19 0.0 2.0 0.00 0.00 0.00 89 1018.9
20260509064042 62 17 1.0 2.0 0.00 0.00 0.00 90 1018.6
20260509063537 62 36 1.0 1.0 0.00 0.00 0.00 89 1018.7
20260509063035 62 302 2.0 3.0 0.00 0.00 0.00 90 1019.0
20260509062532 62 329 0.0 2.0 0.00 0.00 0.00 90 1018.7
20260509062030 62 32 0.0 2.0 0.00 0.00 0.00 89 1018.9
20260509061526 62 299 3.0 3.0 0.00 0.00 0.00 90 1018.9
20260509061024 62 304 1.0 2.0 0.00 0.00 0.00 91 1018.6
20260509060521 62 32 0.0 1.0 0.00 0.00 0.00 90 1018.7
20260509060017 62 36 1.0 2.0 0.00 0.00 0.00 90 1018.8
20260509055512 62 59 2.0 2.0 0.00 0.00 0.00 90 1018.9
20260509055009 62 310 0.0 1.0 0.00 0.00 0.00 89 1018.7
20260509054505 62 298 1.0 2.0 0.00 0.00 0.00 90 1019.0
20260509054004 62 304 0.0 1.0 0.00 0.00 0.00 90 1019.1
20260509053502 62 38 0.0 0.0 0.00 0.00 0.00 90 1019.0
20260509052958 62 44 0.0 0.0 0.00 0.00 0.00 90 1019.1
20260509052456 63 110 0.0 1.0 0.00 0.00 0.00 89 1018.9
20260509051954 63 22 0.0 1.0 0.00 0.00 0.00 88 1019.1
20260509051451 63 36 0.0 2.0 0.00 0.00 0.00 88 1019.0
20260509050948 64 233 0.0 1.0 0.00 0.00 0.00 87 1019.2
20260509050444 64 336 0.0 2.0 0.00 0.00 0.00 87 1019.2
20260509045941 64 0 1.0 2.0 0.00 0.00 0.00 88 1019.0
20260509045439 64 348 1.0 2.0 0.00 0.00 0.00 88 1019.1
20260509044935 64 50 0.0 0.0 0.00 0.00 0.00 87 1019.3
20260509044434 64 343 2.0 3.0 0.00 0.00 0.00 88 1019.3
20260509043930 64 337 0.0 2.0 0.00 0.00 0.00 87 1019.4
20260509043426 64 312 2.0 3.0 0.00 0.00 0.00 87 1019.4
20260509042921 64 318 0.0 2.0 0.00 0.00 0.00 87 1019.2
20260509042419 64 301 2.0 2.0 0.00 0.00 0.00 87 1019.3
20260509041915 64 311 2.0 2.0 0.00 0.00 0.00 87 1019.4
20260509041412 64 345 2.0 2.0 0.00 0.00 0.00 87 1019.2
20260509040910 64 322 0.0 1.0 0.00 0.00 0.00 87 1019.3
20260509040408 64 70 2.0 2.0 0.00 0.00 0.00 87 1019.4
20260509035904 64 309 0.0 2.0 0.00 0.00 0.00 88 1019.4
20260509035401 63 329 0.0 1.0 0.00 0.00 0.00 88 1019.5
20260509034857 64 49 0.0 1.0 0.00 0.00 0.00 87 1019.3
20260509034355 64 302 1.0 2.0 0.00 0.00 0.00 87 1019.5
20260509033852 64 315 0.0 1.0 0.00 0.00 0.00 87 1019.7
20260509033350 64 324 0.0 2.0 0.00 0.00 0.00 86 1019.5
20260509032846 64 40 0.0 1.0 0.00 0.00 0.00 86 1019.7
20260509032343 64 89 0.0 1.0 0.00 0.00 0.00 86 1019.8
20260509031842 64 19 0.0 1.0 0.00 0.00 0.00 86 1019.5
20260509031338 64 0 1.0 3.0 0.00 0.00 0.00 86 1019.9
20260509030836 64 325 0.0 2.0 0.00 0.00 0.00 86 1019.8
20260509030334 64 308 0.0 2.0 0.00 0.00 0.00 86 1019.8
20260509025830 64 66 0.0 0.0 0.00 0.00 0.00 86 1019.7
20260509025325 64 233 0.0 0.0 0.00 0.00 0.00 86 1019.9
20260509024821 64 29 0.0 1.0 0.00 0.00 0.00 86 1019.8
20260509024318 64 37 0.0 1.0 0.00 0.00 0.00 87 1019.8
20260509023815 65 296 0.0 1.0 0.00 0.00 0.00 85 1019.9
20260509023312 65 301 0.0 2.0 0.00 0.00 0.00 85 1019.7
20260509022809 65 320 0.0 2.0 0.00 0.00 0.00 85 1019.5
20260509022307 64 313 0.0 2.0 0.00 0.00 0.00 87 1019.7
20260509021803 64 89 0.0 0.0 0.00 0.00 0.00 87 1019.9
20260509021300 64 129 0.0 0.0 0.00 0.00 0.00 87 1019.7